Location: Damme
(52.5216°N, 8.1979°E)
Time: 07:18:19
(UTC+00:00)

Daily predictions for brighter satellites

Satellite Brightness Start Highest point End
(mag) Time Altitude Azimuth Time Altitude Azimuth Time Altitude Azimuth
NOSS 2-2 (C) 4.3 16:30:45 10° NW 16:35:49 71° NE 16:42:51 10° SE
Timation 2 Rocket 4.1 16:31:47 10° NNW 16:38:20 74° NE 16:45:07 10° SE
Lacrosse 5 2.2 16:33:39 10° W 16:38:40 61° NNW 16:43:43 10° ENE
Cosmos 1825 Rocket 3.6 16:34:56 10° N 16:39:23 61° ENE 16:43:46 10° SSE
ADEOS Rocket 3.2 16:36:06 10° NNE 16:42:25 80° ESE 16:49:27 10° SSW
Envisat 3.6 16:39:25 10° S 16:44:28 65° WSW 16:49:33 10° NNW
Aureole 3 4.4 16:43:20 10° ESE 16:45:03 14° E 16:46:44 10° NE
FALCON 9 DEB 3.1 16:41:51 10° W 16:45:18 81° N 16:48:43 10° E
Okean O Rocket 1.7 16:42:09 10° SSE 16:46:31 86° WSW 16:50:55 10° NNW
GRACE-FO 1 4.5 16:42:58 10° N 16:46:35 71° E 16:50:11 10° S
GRACE-FO 2 4.5 16:43:21 10° N 16:46:59 72° E 16:50:34 10° S
ERBS 3.0 16:44:32 10° W 16:47:45 43° NNW 16:50:59 10° ENE
YAOGAN 1 3.7 16:45:13 10° ESE 16:48:35 23° ENE 16:51:59 10° N
USA 281 3.5 16:42:53 10° SSE 16:49:27 75° WSW 16:56:03 10° NNW
Landsat 5 3.7 16:47:19 10° N 16:51:11 69° WNW 16:55:05 10° SSW
Meteor 2-14 Rocket 4.5 16:46:27 10° N 16:52:39 82° ENE 16:58:46 10° SSE
Cosmos 2219 3.3 16:47:56 10° NNW 16:53:41 63° NE 16:59:24 10° SE
Feng Yun 1-1 Rocket 4.4 16:49:06 10° SSE 16:54:56 64° ENE 17:00:48 10° NNW
CZ-2C R/B 4.0 16:49:56 10° ESE 16:54:58 32° ENE 16:59:50 10° N
SMAP 3.4 16:50:47 10° S 16:55:25 73° WSW 17:00:07 10° NNW
Cosmos 1943 Rocket 3.9 16:53:27 10° W 16:58:09 28° NW 17:02:53 10° NNE
Cosmos 1758 Rocket 3.9 16:53:45 10° NNW 16:58:11 72° W 17:02:31 10° S
Cosmos 1726 Rocket 3.9 16:54:16 10° SSE 16:58:22 43° E 17:02:33 10° NNE
NOSS 2-1 (E) 4.2 16:56:17 10° WSW 16:59:31 39° NNW 17:03:19 10° NE
USA 307 2.9 16:56:13 10° WNW 17:00:33 83° NNE 17:04:41 11° ESE
Cosmos 2082 4.2 16:56:49 10° NNW 17:02:13 39° NE 17:07:35 10° ESE
Cosmos 1726 4.5 16:59:55 10° SW 17:03:06 26° WNW 17:06:16 10° N
CZ-4B R/B 1.4 17:01:13 10° NNE 17:04:26 53° E 17:07:32 10° S
USA 308 2.9 17:01:03 10° WNW 17:05:23 85° NNE 17:09:20 12° ESE
Cosmos 2228 2.9 17:01:11 10° S 17:05:24 65° E 17:09:40 10° NNE
YAOGAN 6 4.2 17:02:15 10° S 17:05:44 41° W 17:09:16 10° NNW
Cosmos 2278 Rocket 4.4 17:03:37 10° NW 17:06:11 13° NNW 17:08:45 10° NNE
Cosmos 1939 Rocket 2.9 17:02:29 10° SSE 17:06:20 52° ENE 17:10:09 10° N
ATLAS 5 CENTAUR R/B 3.0 17:04:17 10° W 17:08:17 33° NNW 17:12:52 10° NE
Cosmos 1452 Rocket 4.2 17:06:08 10° SW 17:11:19 58° WNW 17:16:34 10° NNE
Helios 1A Rocket 3.2 17:09:35 10° SE 17:13:32 47° ENE 17:17:29 10° N
Cosmos 1606 Rocket 3.5 17:09:35 10° S 17:13:56 75° E 17:18:23 10° NNE
FALCON 9 DEB 4.3 17:13:36 10° SSW 17:16:21 26° SSE 17:17:56 18° ESE
GENESIS II 4.3 17:12:33 10° SSW 17:16:33 63° SE 17:20:07 13° NE
CZ-4B R/B 4.4 17:12:16 10° S 17:17:39 48° W 17:22:58 10° NNW
ARGOS 4.1 17:13:56 10° ESE 17:18:28 28° ENE 17:23:01 10° N
SKYMED 2 3.9 17:14:21 10° NNE 17:18:30 42° E 17:22:38 10° S
Cosmos 1689 Rocket 2.7 17:17:10 10° NNE 17:19:49 32° E 17:22:27 10° SSE
Okean-O 2.8 17:15:44 10° SE 17:20:00 50° ENE 17:24:18 10° N
SL-08 R/B 4.5 17:14:07 10° N 17:20:15 58° ENE 17:26:16 10° SSE
Cosmos 1656 4.3 17:17:54 10° S 17:22:55 35° ESE 17:28:00 10° NE
Cosmos 1745 Rocket 4.2 17:17:19 10° N 17:23:22 47° ENE 17:29:27 10° SE
Cosmos 1400 Rocket 3.0 17:21:43 10° S 17:25:40 48° E 17:29:37 10° NNE
PSLV R/B 4.3 17:22:49 10° NNE 17:26:49 41° E 17:30:45 10° S
Cosmos 2227 Rocket 2.1 17:21:58 10° NNW 17:27:40 82° ENE 17:33:21 10° SSE
H-2A R/B 2.6 17:22:54 10° SE 17:27:55 39° ENE 17:32:58 10° N
Cosmos 2058 3.3 17:24:25 10° N 17:28:17 39° ENE 17:32:08 10° SE
Ariane Rocket 4.4 17:27:38 18° ENE 17:28:53 19° NE 17:32:25 10° N
GEOS 3 Rocket 3.8 17:24:33 11° ESE 17:29:35 63° NE 17:34:57 10° NW
Cosmos 1892 2.8 17:25:52 10° N 17:29:42 52° ENE 17:33:29 10° SSE
CZ-4 R/B 1.4 17:26:31 10° SSE 17:30:18 53° ENE 17:34:04 10° N
Cosmos 2263 Rocket 3.3 17:28:19 10° NNW 17:33:05 26° NE 17:35:33 20° ENE
Cosmos 1408 3.0 17:30:26 10° N 17:33:53 38° ENE 17:37:15 10° SE
BREEZE-M DEB (TANK) 4.3 17:31:16 10° WSW 17:35:18 87° S 17:46:14 18° E
BREEZE-M R/B 4.0 17:26:41 10° W 17:35:27 59° S 17:37:09 24° ESE
CSL-04 Rocket 4.0 17:30:57 10° SE 17:36:13 46° ENE 17:41:28 10° N
NOSS 3-4 (A) 4.1 17:32:54 10° NW 17:39:22 50° NNE 17:44:11 21° E
NOSS 3-4 (C) 4.1 17:33:01 10° NW 17:39:28 50° NNE 17:44:16 21° E
CZ-4C R/B 3.5 17:34:04 10° NW 17:39:56 37° NNE 17:44:24 20° ENE
Cosmos 1953 Rocket 4.4 17:36:10 10° NNW 17:40:28 53° W 17:44:47 10° S
Cosmos 1300 3.1 17:40:15 10° SSW 17:44:02 65° WNW 17:47:51 10° N
Cosmos 2058 Rocket 3.0 17:42:50 10° S 17:47:19 82° E 17:51:53 10° NNE
Cosmos 1697 Rocket 3.4 17:42:42 10° SSE 17:47:32 31° ESE 17:49:38 24° ENE
SL-4 R/B 1.7 17:44:02 10° W 17:47:35 75° S 17:49:04 34° ESE
Cosmos 1331 Rocket 4.3 17:43:01 10° SW 17:48:10 67° WNW 17:53:20 10° NNE
Cosmos 1346 Rocket 2.7 17:44:38 10° N 17:48:38 65° ENE 17:52:35 10° SSE
CZ-2D R/B 3.4 17:45:28 10° S 17:49:16 76° WSW 17:53:05 10° NNW
SeaSat 1 2.7 17:46:27 23° ESE 17:49:17 48° NE 17:54:03 10° NNW
Cosmos 1825 2.5 17:47:16 10° N 17:50:53 40° ENE 17:51:37 36° ESE
USA 305 3.1 17:46:56 10° WNW 17:51:13 69° SSW 17:53:26 27° SE
Cosmos 1709 Rocket 4.3 17:47:02 10° N 17:53:09 46° ENE 17:59:16 10° SE
Cosmos 44 3.1 17:51:07 10° SW 17:55:42 88° WNW 17:59:04 20° NE
USA 215 3.4 17:51:39 24° E 17:55:46 67° NNE 18:02:16 10° WNW
Cosmos 1315 Rocket 3.4 17:53:11 10° SSE 17:56:19 35° ESE 17:56:19 35° ESE
USA 306 3.1 17:53:20 10° WNW 17:57:37 65° SSW 17:59:35 30° SE
SAR-Lupe-4 4.1 17:54:19 10° N 17:57:53 60° WNW 18:01:25 10° SSW
ERS-2 3.7 17:54:31 10° N 17:57:54 35° WNW 18:01:15 10° SW
SJ-11-01 4.2 17:54:27 10° SSE 17:59:04 63° ENE 18:03:43 10° N
BREEZE-M R/B 3.8 17:57:38 10° W 18:01:32 64° S 18:05:18 27° ESE
ATLAS 2AS CENTAUR R/B 3.1 17:54:00 10° NW 18:01:35 53° NNE 18:05:17 29° E
Cosmos 968 Rocket 3.8 17:57:47 10° NNW 18:03:00 69° WSW 18:08:08 10° SSE
Cosmos 1340 3.9 17:59:51 10° NNW 18:03:28 44° W 18:07:03 10° S
SJ 16-02 3.5 18:02:45 10° N 18:04:08 13° NNE 18:04:08 13° NNE
COSMO-SKYMED 1 2.8 18:02:19 10° N 18:06:40 70° WNW 18:10:59 10° SSW
HJ-1C 3.4 18:07:27 60° NE 18:07:27 60° NE 18:10:38 10° N
MOS 1 Rocket 3.5 18:02:54 10° NNE 18:07:23 47° E 18:12:06 10° S
Cosmos 2297 Rocket 3.2 18:01:59 10° NW 18:07:25 48° WSW 18:12:49 10° S
Cosmos 1076 Rocket 3.3 18:04:22 10° N 18:08:38 72° E 18:11:35 19° SSE
Cosmos 2369 Rocket 4.4 18:05:21 10° WNW 18:09:22 19° NNW 18:13:26 10° NNE
COSMOS 2455 4.5 18:04:58 10° NW 18:09:30 21° N 18:12:00 17° NE
Cosmos 1777 Rocket 4.4 18:05:07 10° NNW 18:10:02 40° NE 18:10:50 37° ENE
Cosmos 1980 Rocket 3.8 18:05:45 10° SSE 18:07:19 17° SE 18:07:19 17° SE
Aureole 3 Rocket 3.8 18:08:49 10° SSW 18:12:59 65° WNW 18:18:53 10° N
Cosmos 2315 Rocket 4.2 18:10:45 10° SSE 18:16:30 42° E 18:22:16 10° NNE
CSL-04 Debris 4.1 18:11:10 10° SSE 18:16:37 90° SW 18:22:08 10° NNW
S3M 3.8 18:10:50 10° S 18:16:55 75° E 18:23:07 10° NNE
Cosmos 1302 Rocket 4.3 18:13:54 10° SW 18:19:09 70° WNW 18:24:29 10° NNE
Resurs 01 Rocket 4.0 18:24:28 11° NNE 18:24:28 11° NNE 18:24:50 10° NNE
Lacrosse 5 2.2 18:17:15 10° WNW 18:22:14 53° N 18:23:30 42° NE
FALCON 9 DEB 3.2 18:18:54 10° W 18:22:07 70° SW 18:22:07 70° SW
FALCON 9 DEB 3.8 18:21:05 10° WSW 18:23:30 44° SW 18:23:30 44° SW
YAOGAN 1 3.3 18:20:09 10° S 18:24:23 54° W 18:28:40 10° NNW
ERBS 3.3 18:21:16 10° WNW 18:24:02 37° NNW 18:24:02 37° NNW
Cosmos 2360 4.4 18:20:52 10° S 18:26:14 45° ESE 18:26:14 45° ESE
FALCON 9 DEB 4.0 18:25:17 10° WSW 18:27:30 40° SW 18:27:30 40° SW
Cosmos 1812 Rocket 3.9 18:27:21 10° S 18:35:44 12° NNE 18:36:06 10° NNE
Cosmos 1455 3.0 18:28:42 10° S 18:31:13 41° SSW 18:31:13 41° SSW
Cosmos 1503 Rocket 4.3 18:28:09 10° NNW 18:33:19 64° WSW 18:37:11 18° S
CZ-2C R/B 3.9 18:28:54 10° S 18:34:35 56° W 18:40:07 10° NNW
Meteor 2-3 Rocket 3.9 18:29:03 10° N 18:34:37 49° ENE 18:34:44 49° ENE
DMSP B5D1-3 4.4 18:32:41 10° NNE 18:37:52 86° ESE 18:43:02 10° SSW
USA 307 3.7 18:36:23 10° WNW 18:40:26 41° SSW 18:40:52 40° SSW
Cosmos 1354 Rocket 4.5 18:39:41 10° NNW 18:44:52 59° WSW 18:47:53 25° S
USA 308 3.9 18:41:14 10° WNW 18:45:14 39° SW 18:45:31 38° SSW
Meteor 2-10 Rocket 3.8 18:40:47 10° SSW 18:46:02 67° WNW 18:51:09 10° N
Cosmos 2082 4.5 18:40:58 10° NW 18:46:31 51° WSW 18:50:45 17° S
Cosmos 2278 Rocket 4.3 18:50:10 10° NNW 18:52:56 14° NNE 18:53:39 13° NNE
ATLAS 5 CENTAUR R/B 3.5 18:50:19 10° NW 18:54:17 24° N 18:55:01 24° NNE
Cosmos 2151 3.8 18:53:02 10° NNW 18:56:04 45° NNW 18:56:04 45° NNW
Cosmos 1992 Rocket 4.0 18:52:55 10° SSW 18:58:08 76° WNW 18:59:48 44° NNE
ARGOS 3.6 18:54:41 20° S 18:58:23 62° WSW 19:03:48 10° NNW
SL-08 RB Rocket 3.9 19:00:38 66° NW 19:00:38 66° NW 19:04:41 10° NNW
Cosmos 2369 3.5 18:57:23 10° SSW 19:03:06 85° ESE 19:03:11 84° E
CZ-4 R/B 4.1 19:02:59 10° SW 19:05:39 17° W 19:08:18 10° NW
Cosmos 1656 4.4 19:00:57 10° SW 19:06:24 52° NW 19:10:04 21° NNE
Cosmos 1844 Rocket 4.0 19:01:32 10° NNW 19:05:18 27° NNE 19:05:18 27° NNE
Geosat 4.0 19:06:43 77° NW 19:06:48 78° NW 19:11:49 10° SW
Ariane Rocket 3.1 19:07:51 70° NNW 19:07:51 70° NNW 19:12:22 10° NNW
H-2A R/B 3.3 19:02:12 10° SSW 19:07:19 42° W 19:12:31 10° NNW
Cosmos 2263 Rocket 2.2 19:12:02 10° NNW 19:17:16 76° NW 19:17:16 76° NW
SeaSat 1 3.7 19:26:16 34° SW 19:26:56 36° WSW 19:31:30 10° NW
SL-4 R/B 4.4 19:23:31 10° W 19:24:38 18° W 19:24:38 18° W
CZ-4C R/B 2.8 19:22:43 10° NW 19:29:32 72° NE 19:29:36 72° NE
NOSS 3-4 (A) 4.0 19:23:50 10° NW 19:30:40 66° SW 19:31:39 60° SSW
NOSS 3-4 (C) 4.0 19:23:57 10° NW 19:30:46 66° SW 19:31:43 60° SSW
Cosmos 1697 Rocket 3.1 19:25:40 10° SW 19:31:13 59° NW 19:31:25 58° NW
Cosmos 2184 Rocket 4.2 19:25:50 10° N 19:31:04 63° N 19:31:04 63° N
DEBRIS 4.5 19:25:32 10° WSW 19:36:50 55° SSW 19:36:50 55° SSW
USA 215 3.3 19:39:00 72° SW 19:39:00 72° SW 19:45:23 10° WNW
NOSS 3-3 (A) 4.2 19:36:30 10° SW 19:41:47 66° W 19:41:47 66° W
NOSS 3-3 (C) 4.2 19:36:37 10° SW 19:41:53 66° W 19:41:53 66° W
SJ 16-02 3.8 19:40:08 10° NNW 19:41:07 16° NNW 19:41:07 16° NNW
Cosmos 2074 Rocket 4.5 19:46:08 10° NNW 19:51:03 55° NW 19:51:03 55° NW
ATLAS 2AS CENTAUR R/B 3.0 19:45:23 10° NW 19:52:43 62° WSW 19:52:43 62° WSW
Cosmos 1980 Rocket 4.4 19:48:14 10° SW 19:49:11 15° SW 19:49:11 15° SW
COSMOS 2455 4.2 19:51:28 10° NNW 19:55:08 31° N 19:55:08 31° N
Resurs 01 Rocket 4.4 20:02:02 12° NNW 20:02:02 12° NNW 20:02:25 10° NNW
Lacrosse 5 3.8 20:00:26 10° WNW 20:02:41 27° WNW 20:02:41 27° WNW
ATLAS 5 CENTAUR R/B 4.5 20:35:19 10° NW 20:36:31 17° NW 20:36:31 17° NW
CZ-4C R/B 4.4 21:11:23 10° NW 21:14:47 28° WNW 21:14:47 28° WNW
